Location: ?????????
(48.6657°N, 37.6544°E)
Time: 07:24:30
(UTC+00:00)

Daily predictions for brighter satellites

Satellite Brightness Start Highest point End
(mag) Time Altitude Azimuth Time Altitude Azimuth Time Altitude Azimuth
Cosmos 1607 4.1 18:06:28 10° SSW 18:12:28 51° ESE 18:18:25 10° NE
USA 267 4.2 18:07:53 10° ENE 18:12:59 24° SE 18:18:02 10° S
Meteor 2-5 Rocket 3.8 18:08:28 10° S 18:13:52 60° E 18:19:21 10° NNE
SPOT 1/Viking Rocket 3.8 18:11:11 10° S 18:16:19 71° WSW 18:21:29 10° NNW
USA 32 4.4 18:13:15 10° SSE 18:18:13 46° E 18:23:12 10° NNE
USA 245 3.6 18:14:44 10° SSE 18:19:23 63° ENE 18:23:07 10° N
Ariane Rocket 3.2 18:14:47 10° S 18:19:53 77° WSW 18:25:02 10° NNW
NOSS 2-1 (D) 4.2 18:16:15 10° NW 18:20:32 63° NE 18:26:33 10° SE
Cosmos 1954 Rocket 4.1 18:16:12 10° NNW 18:21:30 72° ENE 18:26:44 10° SSE
Cosmos 1455 2.7 18:18:07 10° N 18:21:47 43° ENE 18:25:26 10° SSE
S3M 4.4 18:18:19 10° SSW 18:24:29 70° W 18:30:38 10° N
Cosmos 1980 Rocket 4.3 18:22:20 10° N 18:26:09 18° NE 18:29:55 10° ENE
Cosmos 1697 Rocket 4.1 18:24:34 10° NNW 18:29:23 28° NE 18:34:09 10° ESE
Meteor 2-10 Rocket 4.5 18:25:32 10° NNW 18:30:21 45° W 18:35:05 10° SSW
SPOT 5 2.9 18:28:17 10° SSE 18:32:39 57° ENE 18:36:54 10° N
Cosmos 1536 Rocket 4.5 18:29:23 10° SSE 18:33:11 30° E 18:37:00 10° NNE
Cosmos 2228 4.4 18:31:29 10° NNE 18:35:00 25° ENE 18:38:29 10° SE
H-2A R/B 3.3 18:31:40 10° N 18:35:51 46° WNW 18:40:06 10° SW
IRAS Rocket 4.3 18:31:47 10° NNE 18:37:26 86° ESE 18:43:01 10° SSW
Cosmos 1975 Rocket 3.4 18:34:56 10° SSW 18:39:22 70° W 18:43:49 10° N
Cosmos 1656 4.0 18:34:31 10° NNW 18:39:53 54° ENE 18:45:04 11° SE
CARTOSAT-1 3.9 18:36:28 10° S 18:40:44 64° WSW 18:45:02 10° NNW
ATLAS 5 CENTAUR R/B 4.0 18:29:57 10° NW 18:43:30 51° WSW 18:47:39 10° SSE
Cosmos 1703 4.4 18:40:58 11° SE 18:43:58 27° E 18:47:15 10° NNE
ATLAS 2AS CENTAUR R/B 2.8 18:37:01 10° NW 18:44:13 83° SW 18:50:34 12° SE
Tiangong 2.6 18:41:55 10° WSW 18:44:22 20° S 18:46:11 13° SE
Cosmos 2084 3.1 18:41:27 10° SSW 18:45:16 72° SE 18:49:08 10° NE
USA 234 3.9 18:42:28 10° E 18:48:50 56° NNE 18:55:13 10° NW
Spot 2 Rocket 3.5 18:45:41 10° SSE 18:50:46 87° ENE 18:55:55 10° NNW
Meteor 1-24 Rocket 3.7 18:46:31 10° SSW 18:51:49 79° WNW 18:57:17 10° N
Cosmos 1371 Rocket 4.4 18:51:03 10° SSW 18:56:15 68° WNW 19:01:33 10° NNE
Cosmos 1544 Rocket 3.7 18:52:03 10° NNW 18:56:22 73° W 19:00:40 10° S
Cosmos 1452 Rocket 4.0 18:52:02 10° S 18:56:56 41° ESE 19:01:51 10° NE
Lacrosse 5 2.0 18:52:21 10° WNW 18:57:27 69° SW 19:01:46 14° SE
USA 276 2.1 18:55:21 10° SW 18:58:15 47° SSE 19:01:11 10° E
Cosmos 1833 Rocket 3.7 18:54:28 12° SSE 18:58:46 28° ESE 19:03:27 10° NE
Cosmos 2184 Rocket 4.1 18:55:23 10° N 19:01:32 68° ENE 19:07:03 13° SSE
Terra 1.8 18:59:09 13° SSE 19:03:24 79° ENE 19:08:11 10° NNW
X-37B 1.0 19:06:15 10° WSW 19:08:50 33° S 19:10:30 17° ESE
Cosmos 724 4.2 19:03:46 10° SSW 19:09:32 73° ESE 19:15:20 10° NE
Resurs 01 Rocket 4.1 19:08:48 10° SW 19:11:46 18° W 19:14:47 10° NW
FALCON 9 DEB 4.5 19:10:37 10° W 19:13:43 39° N 19:16:50 10° ENE
Cosmos 2344 4.5 19:08:36 10° NW 19:17:06 66° NE 19:28:50 10° SE
Helios 1A Rocket 3.6 19:15:23 12° S 19:19:03 49° W 19:23:03 10° NNW
NOSS 2-1 (E) 4.4 19:14:31 10° NW 19:19:06 61° SW 19:24:06 17° SSE
Cosmos 2082 Rocket 3.7 19:19:13 15° SE 19:21:33 19° E 19:25:23 10° ENE
Meteor 2-1 Rocket 4.5 19:16:14 10° N 19:21:39 56° ENE 19:25:42 18° SSE
CZ-4B R/B 4.2 19:21:17 10° NW 19:22:36 12° WNW 19:23:55 10° W
Lacrosse 5 rocket 2.8 19:21:02 10° WNW 19:24:08 23° SW 19:26:25 15° S
Cosmos 1271 Rocket 4.1 19:22:03 10° NNW 19:25:42 35° W 19:29:19 10° SSW
ERS-1 Rocket 3.6 19:23:42 12° S 19:28:16 52° W 19:33:12 10° NNW
RESURS DK-1 2.3 19:30:37 10° NNW 19:34:46 87° ENE 19:37:17 23° SSE
Cosmos 2058 Rocket 4.2 19:34:01 10° N 19:38:02 33° ENE 19:40:32 19° SE
CZ-2C R/B 4.1 19:33:32 10° N 19:38:06 64° WNW 19:42:34 10° SSW
Cosmos 1892 Rocket 4.3 19:39:17 22° SE 19:41:32 38° E 19:45:37 10° NNE
Cosmos 1741 Rocket 4.1 19:36:33 10° NNW 19:41:52 72° WSW 19:45:31 20° S
Cosmos 968 Rocket 4.2 19:38:48 10° NNW 19:43:46 44° ENE 19:47:24 18° SE
ARIANE 5 R/B 3.1 19:40:38 18° S 19:43:53 57° W 19:48:16 10° NNW
Cosmos 1825 4.1 19:49:35 14° ESE 19:50:34 16° E 19:52:52 10° NE
SL-8 R/B 3.6 19:46:56 10° W 19:51:44 70° SSW 19:55:33 16° ESE
ADEOS Rocket 4.4 19:46:35 13° ESE 19:52:23 40° ENE 19:59:21 10° N
GP-B 3.4 19:49:50 10° N 19:54:11 52° E 19:56:27 26° SSE
USA 267 3.2 19:50:09 10° ENE 19:56:43 74° SE 20:03:15 10° SW
COSMOS 2406 3.5 19:55:52 21° S 19:59:31 49° ESE 20:05:03 10° NE
ASTEX 1 3.4 19:55:12 10° N 20:00:13 71° E 20:03:16 24° S
Cosmos 2369 3.9 19:56:42 10° NNW 20:02:27 68° ENE 20:06:14 22° SE
SL-16 R/B 4.1 19:58:57 10° N 20:03:29 24° NE 20:07:59 10° E
Cosmos 962 Rocket 4.5 20:00:53 10° N 20:07:08 84° E 20:11:13 23° SSE
Nadezhda 1 Rocket 4.2 20:02:33 13° SSW 20:07:57 70° W 20:14:02 10° N
Cosmos 1980 Rocket 2.4 20:05:32 10° NNW 20:11:15 70° ENE 20:14:52 23° SE
Cosmos 2228 4.2 20:08:44 10° NNW 20:12:35 34° W 20:15:17 17° SSW
Cosmos 1697 Rocket 2.9 20:08:14 10° NNW 20:13:47 64° WSW 20:17:01 25° S
Cosmos 1606 Rocket 4.2 20:13:15 10° NNW 20:17:25 48° W 20:19:49 23° SSW
Meteor 1-11 4.2 20:15:14 24° S 20:18:39 71° E 20:24:13 10° NNE
SJ 16-02 3.7 20:18:41 10° NNE 20:21:30 16° NE 20:24:17 10° E
Cosmos 1892 2.7 20:21:09 37° SSE 20:22:25 62° E 20:26:10 10° NNE
Cosmos 2084 Rocket 3.2 20:20:33 10° NW 20:24:27 83° NE 20:26:17 31° SE
In-Cosmos 22 Rocket 4.4 20:24:42 27° SSE 20:27:38 57° E 20:33:01 10° NNE
Cosmos 1331 Rocket 4.4 20:24:00 11° SW 20:28:59 62° WNW 20:34:16 10° NNE
USA 234 3.2 20:27:05 21° SE 20:31:45 70° SW 20:38:20 10° WNW
USA 276 2.2 20:30:55 10° W 20:33:54 68° N 20:36:55 10° ENE
ATLAS 2AS CENTAUR R/B 4.4 20:29:24 10° WNW 20:34:03 19° WSW 20:37:59 12° SW
Lacrosse 5 3.8 20:36:50 10° W 20:39:37 15° WSW 20:40:57 14° SW
Terra 4.2 20:39:12 10° WSW 20:41:45 14° W 20:44:18 10° NW
Cosmos 1833 Rocket 3.3 20:36:53 10° SW 20:42:22 54° WNW 20:47:54 10° NNE
Cosmos 1408 2.8 20:41:28 35° SW 20:42:41 59° W 20:46:07 10° N
Cosmos 2322 Rocket 3.7 20:37:54 10° NNW 20:42:54 31° NE 20:47:54 10° ESE
X-37B 2.9 20:41:24 10° WSW 20:41:43 12° WSW 20:41:43 12° WSW
SL-8 Rocket 4.1 20:39:17 10° NNW 20:45:32 73° W 20:49:08 27° S
Cosmos 2278 3.8 20:41:27 10° NNW 20:47:13 78° ENE 20:50:32 26° SE
Cosmos 1867 3.5 20:42:06 10° NW 20:47:37 89° SW 20:50:39 27° SE
ATLAS 5 CENTAUR R/B 2.5 20:49:01 24° ESE 20:49:01 24° ESE 20:52:08 10° ENE
FALCON 9 DEB 4.1 20:47:15 10° WNW 20:50:24 44° NNE 20:53:34 10° E
Cosmos 1302 Rocket 4.1 20:51:44 21° SSW 20:55:13 72° WNW 21:00:26 10° NNE
Cosmos 1812 Rocket 3.9 20:51:01 10° N 20:55:27 57° ENE 20:57:18 32° SE
ALOS 2 2.5 20:55:22 37° S 20:57:06 82° WSW 21:01:32 10° NNW
Cosmos 2218 Rocket 4.2 20:51:05 10° NNW 20:57:27 71° W 21:01:07 27° S
Cosmos 2366 rocket 4.2 20:55:03 10° NNW 21:01:19 67° W 21:04:54 27° S
Aureole 1 Rocket 4.5 20:57:19 10° NNW 21:04:12 81° ENE 21:09:37 23° SSE
Cosmos 2082 Rocket 2.3 21:01:01 21° SSW 21:04:58 80° WNW 21:10:42 10° NNE
Cosmos 1602 Rocket 3.5 21:08:25 39° S 21:09:54 71° E 21:14:14 10° NNE
H-2A R/B 3.6 21:08:48 10° N 21:13:00 71° WNW 21:14:45 34° SSW
Cosmos 2360 Rocket 3.4 21:17:19 10° NNW 21:22:36 38° NE 21:27:51 10° ESE
Cosmos 1825 3.0 21:24:12 30° SW 21:25:33 42° WNW 21:29:09 10° N
Cosmos-2242 2.9 21:25:48 10° NNW 21:30:04 82° W 21:31:28 41° S
ERS-2 2.0 21:27:02 10° NNE 21:30:39 87° WNW 21:31:31 50° SSW
Cosmos 1934 Rocket 4.3 21:28:13 10° N 21:34:14 59° ENE 21:37:53 24° SSE
Cosmos 1626 Rocket 4.3 21:33:17 26° SW 21:35:15 43° WNW 21:39:24 10° N
ADEOS Rocket 3.8 21:33:31 26° SSW 21:37:35 54° W 21:45:03 10° NNW
USA 267 4.0 21:33:16 10° NE 21:39:36 54° NNW 21:45:56 10° W
Cosmos 2058 3.1 21:40:13 39° SSE 21:41:33 60° E 21:45:42 10° NNE
Cosmos 1606 2.6 21:38:32 10° N 21:42:24 83° W 21:43:26 47° S
Cosmos 1825 Rocket 3.5 21:45:52 40° S 21:47:21 76° E 21:51:42 10° NNE
SL-16 R/B 2.1 21:42:33 10° NNW 21:48:16 80° WSW 21:51:18 29° SSE
CRYOSAT 2 4.4 21:46:13 34° SSE 21:48:24 81° E 21:53:20 10° N
Cosmos 1633 3.4 21:51:28 31° WSW 21:52:25 38° WNW 21:55:42 10° N
Cosmos 1980 Rocket 3.7 21:50:28 10° NW 21:54:41 22° W 21:56:37 18° SW
SL-19 R/B 4.4 21:55:12 36° SE 21:56:31 65° ENE 22:00:33 10° N
Cosmos 1821 Rocket 4.4 21:52:02 10° NNW 21:58:04 51° W 22:01:15 27° SSW
BREEZE-M DEB (TANK) 3.0 21:51:00 10° WSW 21:58:54 88° S 22:01:45 10° ENE
Meteor 2-2 Rocket 4.3 21:53:44 10° NNW 21:59:45 87° W 22:03:05 28° S
SJ 16-02 1.3 21:56:10 10° NNW 22:00:36 76° WSW 22:02:17 37° S
Cosmos 2219 Rocket 3.7 21:57:50 10° NNW 22:03:02 35° NE 22:08:13 10° ESE
Cosmos 1842 Rocket 4.4 21:59:01 10° N 22:03:20 44° ENE 22:05:53 22° SE
BREEZE-M DEB (TANK) 2.9 22:08:28 44° S 22:08:54 48° SSE 22:14:51 10° ENE
CZ-2D R/B 3.9 22:05:04 10° NE 22:09:01 21° E 22:12:16 13° SE
USA 276 1.9 22:06:42 10° WNW 22:09:43 86° NNE 22:12:43 10° ESE
Cosmos 1605 Rocket 4.2 22:07:31 10° N 22:13:57 74° E 22:18:13 23° SSE
Cosmos 1340 Rocket 2.7 22:13:12 42° S 22:14:27 86° E 22:18:26 10° NNE
Nadezhda 3 Rocket 4.4 22:11:41 24° SW 22:15:17 53° WNW 22:21:19 10° N
USA 234 4.4 22:14:25 21° SW 22:15:33 22° SW 22:20:28 10° WNW
Resurs 1-4 Rocket 3.6 22:13:04 10° NE 22:17:31 26° E 22:20:52 15° SE
Meteor 2-3 Rocket 4.4 22:18:43 22° SSE 22:21:59 47° E 22:27:19 10° NNE
Cosmos 44 4.3 22:20:47 24° SSE 22:22:13 29° ESE 22:26:07 10° ENE
FALCON 9 DEB 3.0 22:23:33 10° WNW 22:26:45 54° SSW 22:26:46 54° SSW
Cosmos 2221 2.4 22:22:24 10° N 22:26:46 83° W 22:28:39 33° S
Cosmos 2322 Rocket 2.4 22:21:44 10° NW 22:27:17 57° WSW 22:30:12 28° S
Cosmos 2333 Rocket 2.6 22:22:32 10° NNW 22:28:18 66° ENE 22:34:02 10° SE
ATLAS 5 CENTAUR R/B 2.3 22:30:25 17° WSW 22:33:03 42° NW 22:37:12 10° NNE
Cosmos 2151 3.8 22:34:34 24° SSE 22:36:44 43° E 22:40:50 10° NNE
Cosmos 1782 3.4 22:32:56 10° N 22:36:52 53° ENE 22:39:09 22° SSE
Geosat 4.2 22:44:17 27° S 22:46:50 52° WSW 22:51:46 10° NW
Cosmos 2082 Rocket 4.4 22:45:54 10° W 22:50:00 20° NW 22:54:05 10° N
MOS 1 Rocket 4.1 22:48:24 11° SE 22:53:00 54° ENE 22:58:09 10° N
ADEOS II 3.4 22:53:45 10° NNE 22:58:26 31° E 23:02:39 12° SSE
Cosmos 2333 4.2 22:52:40 10° NNW 22:58:27 78° WSW 23:03:31 14° SSE
Cosmos 1898 Rocket 4.1 22:54:01 10° NNW 22:59:09 57° ENE 23:04:14 10° SE
NPP 4.3 22:54:43 10° NNE 22:59:58 48° E 23:03:48 18° SSE
MOZ.5/SAFIR/RUBIN 5/SL-8 4.0 23:00:36 26° SSW 23:03:08 55° W 23:07:48 10° NNW
SL-23 DEB 4.3 23:03:08 28° SSE 23:03:35 29° SE 23:06:35 10° E
SL-24 DEB 4.2 23:01:14 23° S 23:04:07 87° E 23:08:45 10° N
Cosmos 1833 4.2 23:01:07 24° SSW 23:04:38 84° WNW 23:10:17 10° NNE
SL-16 R/B 2.8 22:58:30 10° SSE 23:04:44 73° ENE 23:11:00 10° NNW
Cosmos 2360 Rocket 2.6 23:01:20 10° NW 23:06:41 43° WSW 23:09:53 22° SSW
SL-4 R/B 2.1 23:07:39 32° SSW 23:08:56 48° SSE 23:12:42 10° ENE
Cosmos 1812 2.6 23:06:38 10° N 23:10:28 84° W 23:12:38 25° S
Cosmos 1933 3.7 23:09:18 10° NNW 23:13:10 48° W 23:14:59 27° SSW
Cosmos 540 Rocket 4.2 23:09:57 18° SSE 23:13:27 44° ESE 23:18:19 10° NE
CZ-4 R/B 4.1 23:08:44 10° NNE 23:13:34 68° ESE 23:16:55 20° S
Cosmos 972 4.5 23:09:20 10° NNW 23:14:12 63° WSW 23:17:55 18° S
Cosmos 1937 Rocket 4.1 23:10:16 10° NNW 23:15:30 58° ENE 23:20:38 10° SE
COSMOS 2428 2.9 23:10:06 10° NNW 23:15:51 77° ENE 23:21:34 10° SSE
SL-27 R/B 2.2 23:15:38 32° SSW 23:17:02 82° WNW 23:20:20 10° NNE
COSMOS 2487 2.0 23:19:03 34° SSW 23:20:15 84° WNW 23:23:21 10° NNE
Meteor 1-26 Rocket 4.4 23:16:45 10° NNW 23:22:25 60° W 23:26:48 18° S
COSMOS 2455 4.2 23:20:51 10° NNW 23:26:34 42° NE 23:32:16 10° ESE
Cosmos 2237 Rocket 3.6 23:21:42 10° NNW 23:27:04 40° NE 23:32:22 10° ESE
Cosmos 1076 Rocket 4.2 23:26:19 21° SW 23:28:49 43° WNW 23:33:01 10° N
Cosmos 1727 Rocket 4.2 23:24:24 20° SSW 23:28:59 66° WNW 23:35:17 10° N
Thor Agena Rocket 3.9 23:24:57 10° N 23:30:03 53° WNW 23:33:38 19° SW
SL-16 R/B 4.0 23:28:46 10° WNW 23:31:25 13° W 23:33:07 12° WSW
CENTAUR R/B 3.2 23:29:38 16° S 23:33:58 45° ESE 23:40:30 10° NE
Cosmos 2322 3.7 23:28:37 10° NNW 23:34:15 63° WSW 23:39:49 10° SSE
IDEFIX/ARIANE 42P 3.1 23:29:40 10° NNE 23:34:48 54° E 23:39:24 13° S
Cosmos 1340 3.2 23:31:22 10° N 23:35:03 57° ENE 23:38:42 10° SSE
Cosmos 2297 Rocket 3.9 23:31:15 10° SSE 23:35:45 25° ESE 23:40:16 10° NE
Cosmos 1000 Rocket 4.5 23:38:05 16° SSW 23:43:05 79° W 23:49:16 10° N
Gbstr 26 Del rocket 3.5 23:39:34 15° WSW 23:43:36 79° SSE 23:49:38 10° ENE
Cosmos 1459 Rocket 4.0 23:37:59 10° NNW 23:44:01 68° W 23:49:36 12° S
USA 276 2.9 23:42:36 10° W 23:45:11 26° SSW 23:47:45 10° SSE
Meteor 1-28 Rocket 3.1 23:43:23 12° SSE 23:46:46 87° WSW 23:50:29 10° NNW
Meteor 2-6 Rocket 4.3 23:40:54 10° NNW 23:46:53 78° W 23:52:41 10° S
Cosmos 2219 Rocket 2.5 23:41:43 10° NW 23:47:09 47° WSW 23:52:33 10° S
Cosmos 2100 Rocket 4.2 23:41:57 10° NNW 23:48:13 59° W 23:53:55 13° S
NOSS 3-2 (C) 4.5 23:43:49 11° S 23:48:26 32° ESE 23:53:53 10° NE
CZ-2D R/B 2.3 23:44:20 10° N 23:49:28 60° WNW 23:53:35 16° SW
NOSS 0 Rocket 4.0 23:44:15 10° NNW 23:50:28 85° ENE 23:56:38 10° SSE
Cosmos 1328 Rocket 4.1 23:46:18 10° N 23:50:42 60° ENE 23:55:02 10° SSE
ISS -2.8 23:49:14 20° SSW 23:50:56 33° SE 23:54:01 10° E
